Track LEMUR-2-DAYWZAGOODDAY now! 10-day predictions LEMUR-2-DAYWZAGOODDAY is classified as:
1 46501U 20068R 21022.77657135 .00001576 00000-0 12329-3 0 9999 2 46501 97.6774 321.0576 0012874 224.3212 135.6987 15.02437480 17371